Flag for U.S.A. Weather past 2 weeks in Thousand Oaks, California, U.S.A.

Now
71 °F

Clear.


Feels Like: 75 °F
Forecast: 64 / 80 °F
Wind: No wind

Location: Camarillo Airport

Current Time: Sep 18, 2014 at 12:40:20 AM

Latest Report: Sep 17, 2014 at 11:55 PM


Visibility: 10 mi

Pressure: 29.80 "Hg

Humidity: 66%

Dew point: 59 °F

Location of Thousand OaksLocation

Historic Weather in Thousand Oaks — Graph

°F

Thousand Oaks temperature yesterday

Maximum temperature yesterday: 85 °F (at 11:55 AM)
Minimum temperature yesterday: 70 °F (at 5:55 AM)
Average temperature yesterday: 76 °F

Past Weeks' High & Low Weather Summary

 TemperatureHumidityPressure
High90 °F (Sep 16, 12:55 PM)87% (Sep 6, 3:55 AM)29.95 "Hg (Sep 6, 3:55 AM)
Low58 °F (Sep 6, 3:55 AM)30% (Sep 10, 2:55 PM)29.71 "Hg (Sep 16, 4:55 PM)
Average74 °F64%29.82 "Hg
* Reported Sep 2 10:55 PM — Sep 17 10:55 PM, Thousand Oaks, Weather by CustomWeather, © 2014

Note: Actual official high and low records may vary slightly from our data, if they occured in-between our weather recording intervals... More about our weather records

Advertising

Thousand Oaks weather history for previous 24 hours

 ConditionsComfort  
Time TempWeatherWind HumidityBarometerVisibility
10:55 PM
Sep 17
72 °FClear.3 mph64%29.80 "Hg10 mi
9:55 PM73 °FClear.5 mph59%29.79 "Hg10 mi
8:55 PM74 °FClear.5 mph57%29.78 "Hg10 mi
7:55 PM74 °FSunny.6 mph60%29.76 "Hg10 mi
6:55 PM75 °FSunny.7 mph55%29.75 "Hg10 mi
5:55 PM79 °FSunny.14 mph52%29.74 "Hg10 mi
4:55 PM83 °FSunny.9 mph43%29.73 "Hg10 mi
3:55 PM83 °FSunny.10 mph43%29.75 "Hg10 mi
2:55 PM83 °FSunny.10 mph43%29.76 "Hg10 mi
1:55 PM84 °FSunny.8 mph45%29.77 "Hg10 mi
12:55 PM85 °FSunny.9 mph43%29.78 "Hg10 mi
11:55 AM85 °FSunny.9 mph45%29.79 "Hg10 mi
10:55 AM84 °FSunny.7 mph46%29.78 "Hg10 mi
9:55 AM81 °FSunny.7 mph54%29.78 "Hg10 mi
8:55 AM76 °FSunny.3 mph62%29.76 "Hg8 mi
7:55 AM71 °FSunny.5 mph71%29.76 "Hg7 mi
6:55 AM70 °FClear.No wind73%N/A7 mi
5:55 AM70 °FClear.No wind71%29.75 "Hg9 mi
4:55 AM71 °FClear.No wind68%29.73 "Hg10 mi
3:55 AM71 °FClear.No wind66%29.73 "Hg10 mi
2:55 AM71 °FClear.No wind66%29.74 "Hg10 mi
1:55 AM72 °FClear.No wind66%29.75 "Hg10 mi
12:55 AM72 °FClear.3 mph64%29.75 "Hg10 mi
Weather by CustomWeather, © 2014

See weather overviewHow to use our weather pages